Weather History for KBTM - May, 2014

Change the Weather History Date:

Saturday, May 3, 2014

  Actual Average Record
Temperature  
Mean Temperature 51 °F 44 °F  
Max Temperature 64 °F 57 °F 81 °F (1966)
Min Temperature 37 °F 30 °F 18 °F (1953)
Degree Days  
Heating Degree Days 14 21  
Month to date heating degree days 42 65  
Since 1 July heating degree days 8263 8456  
Cooling Degree Days 0 0  
Month to date cooling degree days 0 0  
Year to date cooling degree days 0 0  
Moisture  
Dew Point 35 °F    
Average Humidity 59    
Maximum Humidity 82    
Minimum Humidity 36    
Precipitation  
Precipitation 0.00 in 0.05 in 0.61 in (2007)
Month to date precipitation 0.00 0.14  
Year to date precipitation 3.46 2.97  
Sea Level Pressure  
Sea Level Pressure 29.75 in    
Wind  
Wind Speed 7 mph (SSE)    
Max Wind Speed 21 mph    
Max Gust Speed 25 mph    
Visibility 10 miles    
Events      
T = Trace of Precipitation, MM = Missing Value Source: NWS Daily Summary

Daily Weather History Graph

Daily Weather History Graph

Search for Another Location

Airport or City:

Trip Planner

Search our weather history database for the weather conditions in past years. The results will help you decide how hot, cold, wet, or windy it might be!

Date:

Astronomy

May. 03, 2014 Rise Set
Actual Time 6:13 AM MDT 8:40 PM MDT
Civil Twilight 5:40 AM MDT 9:14 PM MDT
Nautical Twilight 4:58 AM MDT 9:56 PM MDT
Astronomical Twilight 4:11 AM MDT 10:43 PM MDT
Moon 9:44 AM MDT (5/3) 12:07 AM MDT (5/3)
Length of Visible Light 15h 33m
Length of Day
14h 26m
Waxing Crescent, 20% of the Moon is Illuminated
May 3
Waxing Crescent
May 6
First Quarter
May 14
Full
May 21
Last Quarter
May 28
New

Hourly Weather History & Observations

Time (MDT) Temp. Windchill Dew Point Humidity Pressure Visibility Wind Dir Wind Speed Gust Speed Precip Events Conditions
12:53 AM 46.0 °F 44.8 °F 33.1 °F 61% 29.82 in 10.0 mi SSW 3.5 mph - N/A   Clear
1:53 AM 45.0 °F - 34.0 °F 65% 29.81 in 10.0 mi Calm Calm - N/A   Clear
2:53 AM 42.1 °F 39.2 °F 34.0 °F 73% 29.79 in 10.0 mi SSE 4.6 mph - N/A   Clear
3:53 AM 41.0 °F - 33.1 °F 73% 29.79 in 10.0 mi Calm Calm - N/A   Scattered Clouds
4:53 AM 42.1 °F - 33.1 °F 70% 29.79 in 10.0 mi Calm Calm - N/A   Mostly Cloudy
5:53 AM 39.9 °F 36.7 °F 34.0 °F 79% 29.79 in 10.0 mi South 4.6 mph - N/A   Clear
6:53 AM 37.0 °F 34.5 °F 32.0 °F 82% 29.80 in 10.0 mi WNW 3.5 mph - N/A   Scattered Clouds
7:53 AM 41.0 °F - 33.1 °F 73% 29.80 in 10.0 mi Calm Calm - N/A   Mostly Cloudy
8:53 AM 48.9 °F - 33.1 °F 54% 29.78 in 10.0 mi North 4.6 mph - N/A   Partly Cloudy
9:53 AM 53.1 °F - 32.0 °F 45% 29.77 in 10.0 mi Calm Calm - N/A   Partly Cloudy
10:53 AM 57.9 °F - 35.1 °F 42% 29.73 in 10.0 mi SSE 10.4 mph - N/A   Clear
11:53 AM 61.0 °F - 35.1 °F 38% 29.72 in 10.0 mi SSE 16.1 mph 20.7 mph N/A   Partly Cloudy
12:53 PM 62.1 °F - 35.1 °F 37% 29.71 in 10.0 mi South 11.5 mph - N/A   Partly Cloudy
1:53 PM 62.6 °F - 35.6 °F 37% 29.80 in 10.0 mi SE 11.5 mph 17.3 mph N/A   Partly Cloudy
2:53 PM 62.1 °F - 36.0 °F 38% 29.70 in 10.0 mi SSE 12.7 mph - N/A   Partly Cloudy
3:53 PM 62.1 °F - 36.0 °F 38% 29.68 in 10.0 mi SSE 13.8 mph - N/A   Clear
4:53 PM 60.1 °F - 37.0 °F 42% 29.68 in 10.0 mi SSE 11.5 mph - N/A   Mostly Cloudy
5:53 PM 57.9 °F - 37.9 °F 47% 29.71 in 10.0 mi South 13.8 mph - N/A   Mostly Cloudy
6:53 PM 57.0 °F - 37.9 °F 49% 29.72 in 10.0 mi SSE 13.8 mph - N/A   Clear
7:53 PM 55.0 °F - 37.9 °F 53% 29.70 in 10.0 mi SSE 15.0 mph - N/A   Partly Cloudy
8:53 PM 51.1 °F - 37.9 °F 61% 29.71 in 10.0 mi South 6.9 mph - N/A   Partly Cloudy
9:53 PM 48.0 °F - 37.9 °F 68% 29.73 in 10.0 mi SSE 5.8 mph - N/A   Clear
10:53 PM 44.1 °F 41.5 °F 37.0 °F 76% 29.74 in 10.0 mi SSE 4.6 mph - N/A   Clear
11:53 PM 43.0 °F 39.5 °F 36.0 °F 76% 29.73 in 10.0 mi South 5.8 mph - N/A   Clear